Regional Weather Roundup
Issued by NWS Green Bay, WI

Home | Current Version | Previous Version | Text Only | Print | Product List | Glossary On
Versions: 1 2 3 4 5 6 7 8 9 10 11 12 13 14 15 16 17 18 19 20 21 22 23 24 25 26 27 28 29 30 31 32 33 34 35 36 37 38 39 40 41 42 43 44 45 46 47 48 49 50
000
ASUS43 KGRB 012259
RWRGRB

NORTH-CENTRAL AND NORTHEAST WISCONSIN REGIONAL WEATHER ROUNDUP
NATIONAL WEATHER SERVICE GREEN BAY WI
600 PM CDT WED OCT 01 2014

WIZ005-009-010>012-018-019-020000-
NORTH CENTRAL WISCONSIN

CITY           SKY/WX    TMP DP  RH WIND       PRES   REMARKS
IRONWOOD       NOT AVBL
MANITOWISH WTR NOT AVBL
ARBOR VITAE    NOT AVBL
EAGLE RIVER    NOT AVBL
LAND O LAKES   NOT AVBL
RHINELANDER    CLOUDY    55  51  86 SE8       29.87R
PHILLIPS       DRIZZLE   53  52  96 S6        29.83S
ANTIGO         NOT AVBL
TOMAHAWK       NOT AVBL
MERRILL        NOT AVBL
$$

WIZ013-073-020000-
NORTHEAST WISCONSIN

CITY           SKY/WX    TMP DP  RH WIND       PRES   REMARKS
IRON MOUNTAIN  CLOUDY    55  49  80 SE12      29.90S
MARINETTE      NOT AVBL
$$

WIZ017-030-035>037-045-020000-
CENTRAL WISCONSIN

CITY           SKY/WX    TMP DP  RH WIND       PRES   REMARKS
MEDFORD        NOT AVBL
WAUSAU         CLOUDY    60  51  72 SE12      29.85R
MOSINEE        CLOUDY    59  54  82 SE7       29.87S
MARSHFIELD     LGT RAIN  60  52  74 SE10      29.84F
WISC RAPIDS    LGT RAIN  61  53  75 SE6       29.86F
STEVENS POINT  NOT AVBL
WAUPACA        NOT AVBL
SHAWANO        CLOUDY    59  52  78 SE12      29.90S
CLINTONVILLE   CLOUDY    59  52  77 SE7       29.90R
$$

WIZ038-039-048-051-020000-
FOX VALLEY

CITY           SKY/WX    TMP DP  RH WIND       PRES   REMARKS
NWS GREEN BAY  CLOUDY    57  52  83 SE12      29.92S
APPLETON       MOCLDY    59  50  72 SE13      29.89F
OSHKOSH        CLOUDY    59  51  75 SE12      29.89S
FOND DU LAC    CLOUDY    59  50  72 SE15G23   29.90R
$$

WIZ022-050-052-020000-
EAST CENTRAL WISCONSIN

CITY           SKY/WX    TMP DP  RH WIND       PRES   REMARKS
STURGEON BAY   NOT AVBL
MANITOWOC      NOT AVBL
SHEBOYGAN      CLOUDY    56  50  80 SE9       29.93F
$$

LMZ563-521-522-541>543-020000-
LAKESHORE

STATION/POSITION TIME  TEMP    WIND        PRES    VSBY  WAVE
                       AIR SEA DIR/SP/G                  HT/PER
                 (UTC) (F)     (DEG/KT/KT) (MB)    (MI)  (FT/S)
SHEBOYGAN LKSHOR 2200   56 58  140/ 16/ 18 1014.2R
KEWAUNEE LKSHORE 2200   55     150/ 15/ 18 1013.2F
NORTHPORT PIER   2200   56     150/  3/  6 1013.9F
N MID LAKE BUOY  2200   56 58  160/  4/  6 1014.5F         1/ 3
CHAMBERS ISLAND  2200   56     130/  3/  9 1013.9S
MENOMINEE LKSHOR 2200   57     170/ 11/ 15 1013.9F
$$



USA.gov is the U.S. government's official web portal to all federal, state and local government web resources and services.